CST,Max TemperatureF,Mean TemperatureF,Min TemperatureF,Max Dew PointF,MeanDew PointF,Min DewpointF,Max Humidity, Mean Humidity, Min Humidity, Max Sea Level PressureIn, Mean Sea Level PressureIn, Min Sea Level PressureIn, Max VisibilityMiles, Mean VisibilityMiles, Min VisibilityMiles, Max Wind SpeedMPH, Mean Wind SpeedMPH, Max Gust SpeedMPH,PrecipitationIn, CloudCover, Events, WindDirDegrees
2012-1-1,46,37,28,27,23,17,78,61,36,30.71,30.54,30.27,10,10,10,22,16,26,0.00,0,,320
2012-1-2,37,28,19,21,15,6,81,61,32,30.77,30.65,30.45,10,10,10,12,6,,0.00,0,,263
2012-1-3,48,36,25,34,27,20,86,72,55,30.43,30.19,30.03,10,10,10,18,13,,0.00,0,,210
2012-1-4,55,44,32,31,28,26,85,61,38,30.40,30.29,30.20,10,10,10,18,12,,0.00,0,,276
2012-1-5,64,46,28,37,31,26,92,67,31,30.19,30.02,29.82,10,10,10,14,10,,0.00,0,,228
2012-1-6,55,42,30,31,26,19,92,62,30,30.14,29.93,29.74,10,10,10,25,13,33,0.00,0,,331
2012-1-7,39,31,23,24,21,16,78,66,47,30.25,30.19,30.12,10,10,10,9,5,,0.00,2,,12
2012-1-8,42,34,26,26,24,22,84,67,47,30.35,30.30,30.22,10,10,10,10,6,,0.00,4,,33
2012-1-9,51,36,21,30,24,19,92,71,35,30.32,30.22,30.08,10,10,10,14,8,,0.00,0,,240
2012-1-10,57,42,26,34,28,23,89,73,37,30.08,29.93,29.73,10,10,10,12,8,,0.00,0,,216
2012-1-11,37,29,19,32,22,2,92,69,47,30.18,29.93,29.68,10,10,8,39,19,48,0.00,5,Snow,339
2012-1-12,30,22,14,5,-4,-14,62,39,16,30.19,30.15,30.06,10,10,10,31,20,38,0.00,1,,311
2012-1-13,45,28,12,22,15,4,75,59,31,30.17,30.10,30.01,10,10,10,13,7,,0.00,2,,245
2012-1-14,46,36,25,19,15,11,67,46,24,30.31,30.18,29.98,10,10,10,20,12,,0.00,0,,265
2012-1-15,62,46,30,28,22,16,78,48,19,30.04,29.84,29.67,10,10,10,22,16,30,0.00,0,,186
2012-1-16,39,29,19,27,21,14,93,77,53,30.03,29.80,29.61,10,8,0,28,14,34,0.00,2,Fog-Snow,345
2012-1-17,26,18,10,12,8,4,81,69,47,30.45,30.32,30.01,10,10,6,21,15,30,0.00,1,Snow,322
2012-1-18,44,29,14,21,16,8,77,61,37,30.31,30.04,29.81,10,10,10,24,14,30,0.00,0,,193
2012-1-19,28,18,9,21,7,2,81,67,48,30.13,30.00,29.83,10,10,10,18,12,29,0.00,0,,46
2012-1-20,27,18,10,11,8,5,87,69,51,30.24,29.99,29.87,10,10,10,16,9,,0.00,0,,31
2012-1-21,35,22,8,18,10,4,85,66,44,30.24,29.95,29.47,10,10,10,,,,0.00,1,,-1
2012-1-22,46,39,32,34,29,20,93,74,42,29.80,29.51,29.31,10,9,2,36,22,47,0.05,4,Rain-Snow,334
2012-1-23,53,37,21,27,19,16,85,57,23,30.03,29.97,29.83,10,10,10,21,12,25,0.00,0,,245
2012-1-24,54,42,30,33,27,21,79,58,43,30.20,30.04,29.96,10,10,10,22,13,28,0.00,1,,169
2012-1-25,46,36,25,29,23,18,92,70,37,30.22,30.10,29.95,10,10,10,14,9,,0.00,0,,303
2012-1-26,54,38,23,30,18,9,82,50,17,30.08,29.99,29.89,10,10,10,22,14,30,0.00,0,,324
2012-1-27,48,36,25,27,19,15,71,49,35,30.37,29.99,29.74,10,10,10,33,15,40,0.00,1,,329
2012-1-28,48,32,15,18,10,1,86,50,16,30.45,30.36,30.27,10,10,10,25,12,34,0.00,0,,265
2012-1-29,60,40,19,22,12,8,65,40,13,30.31,30.19,30.04,10,10,10,18,10,25,0.00,0,,222
2012-1-30,70,51,32,38,23,15,76,45,12,30.01,29.87,29.75,10,10,10,16,11,,0.00,0,,196
2012-1-31,59,43,27,38,26,21,96,56,26,30.12,29.96,29.75,10,10,10,21,11,26,0.00,0,,304